EHI
0 0 0 0 0 0 0 0 0 0 0 0 0 0 0 0 0 0 0 0 0 0 0 0 0 0 0 0 0 0 0 0 0 0 0 0 0 0 0 0 0 0 0 0 0 0 0 0 0
0 0 0 0 0 0 0 0 0 0 0 0 0 0 0 0 0 0 0 0 0 0 0 0 0 0 0 0 0 0 0 0 0 0 0 0 0 0 0 0 0 0 0 0 0 0 0 0 0
0 0 0 0 0 0 0 0 0 0 0 0 0 0 0 0 0 0 0 0 0 0 0 0 0 0 0 0 0 0 0 0 0 0 0 0 0 0 0 0 0 0 0 0 0 0 0 0 0
0 0 0 0 0 0 0 0 0 0 0 0 0 0 0 0 0 0 0 0 0 0 0 0 0 0 0 0 0 0 0 0 0 0 0 0 0 0 0 0 0 0 0 0 0 0 0 0 0
0 0 0 0 0 0 0 0 0 0 0 0 0 0 0 0 0 0 0 0 0 0 0 0 1 1 1 1 0 0 0 0 0 0 0 0 0 0 0 0 0 0 0 0 0 0 0 0 0
0 0 0 0 0 0 0 0 0 0 0 0 0 0 0 0 0 0 0 0 0 0 0 0 1 2 2 2 2 2 2 1 0 0 0 0 0 0 0 0 0 0 0 0 0 0 0 0 0
0 0 0 0 0 0 0 0 0 0 0 0 0 0 0 0 0 0 0 0 0 0 0 0 1 1 2 4 5 5 6 4 1 0 0 0 0 0 0 0 0 0 0 0 0 0 0 0 0
0 0 0 0 0 0 0 0 0 0 0 0 0 0 0 0 0 0 0 0 0 0 0 0 0 0 1 4 5 6 6 4 1 0 0 0 0 0 0 0 0 0 0 0 0 0 0 0 0
0 0 0 0 0 0 0 0 0 0 0 0 0 0 0 0 0 0 0 0 0 0 0 0 0 0 0 1 2 2 2 2 0 0 0 0 0 0 0 0 0 0 0 0 0 0 0 0 0
0 0 0 0 0 0 0 0 0 0 0 0 0 0 0 0 0 0 0 0 0 0 0 0 0 0 0 0 0 0 0 0 0 0 0 0 0 0 0 0 0 0 0 0 0 0 0 0 0
0 0 0 0 0 0 0 0 0 0 0 0 0 0 0 0 0 0 0 0 0 0 0 0 0 0 0 0 0 0 0 0 0 0 0 0 0 0 0 0 0 0 0 0 0 0 0 0 0
0 0 0 0 0 0 0 0 0 0 0 0 0 0 0 0 0 0 0 0 0 0 0 0 0 0 0 0 0 0 0 0 0 0 0 0 0 0 0 0 0 0 0 0 0 0 0 0 0
0 0 0 0 0 0 0 0 0 0 0 0 0 0 0 0 0 0 0 0 0 0 0 0 0 0 0 0 0 0 0 0 0 0 0 0 0 0 0 0 0 0 0 0 0 0 0 0 0
0 0 0 0 0 0 0 0 0 0 0 0 0 0 0 0 0 0 0 0 0 0 0 0 0 0 0 0 0 0 0 0 0 0 0 0 0 0 0 0 0 0 0 0 0 0 0 0 0
0 0 0 0 0 0 0 0 0 0 0 0 0 0 0 0 0 0 0 0 0 0 0 0 0 0 0 0 0 0 0 0 0 0 0 0 0 0 0 0 0 0 0 0 0 0 0 0 0
0 0 0 0 0 0 0 0 0 0 0 0 0 0 0 0 0 0 0 0 0 0 0 0 0 0 0 0 0 0 0 0 0 0 0 0 0 0 0 0 0 0 0 0 0 0 0 0 0
0 0 0 0 0 0 0 0 0 0 0 0 0 0 0 0 0 0 0 0 0 0 0 0 0 0 0 0 0 0 0 0 0 0 0 0 0 0 0 0 0 0 0 0 0 0 0 0 0
0 0 0 0 0 0 0 0 0 0 0 0 0 0 0 0 0 0 0 0 0 0 0 0 0 0 0 0 0 0 0 0 0 0 0 0 0 0 0 0 0 0 0 0 0 0 0 0 0
0 0 0 0 0 0 0 0 0 0 0 0 0 0 0 0 0 0 0 0 0 0 0 0 0 0 0 0 0 0 0 0 0 0 0 0 0 0 0 0 0 0 0 0 0 0 0 0 0
0 0 0 0 0 0 0 0 0 0 0 0 0 0 0 0 0 0 0 0 0 0 0 0 0 0 0 0 0 0 0 0 0 0 0 0 0 0 0 0 0 0 0 0 0 0 0 0 0
0 0 0 0 0 0 0 0 0 0 0 0 0 0 0 0 0 0 0 0 0 0 0 0 0 0 0 0 0 0 0 0 0 0 0 0 0 0 0 0 0 0 0 0 0 0 0 0 0
0 0 0 0 0 0 0 0 0 0 0 0 0 0 0 0 0 0 0 0 0 0 0 0 0 0 0 0 0 0 0 0 0 0 0 0 0 0 0 0 0 0 0 0 0 0 0 0 0
0 0 0 0 0 0 0 0 0 0 0 0 0 0 0 0 0 0 0 0 0 0 0 0 0 0 0 0 0 0 0 0 0 0 0 0 0 0 0 0 0 0 0 0 0 0 0 0 0
0 0 0 0 0 0 0 0 0 0 0 0 0 0 0 0 0 0 0 0 0 0 0 0 0 0 0 0 0 0 0 0 0 0 0 0 0 0 0 0 0 0 0 0 0 0 0 0 0
0 0 0 0 0 0 0 0 0 0 0 0 0 0 0 0 0 0 0 0 0 0 0 0 0 0 0 0 0 0 0 0 0 0 0 0 0 0 0 0 0 0 0 0 0 0 0 0 0
0 0 0 0 0 0 0 0 0 0 0 0 0 0 0 0 0 0 0 0 0 0 0 0 0 0 0 0 0 0 0 0 0 0 0 0 0 0 0 0 0 0 0 0 0 0 0 0 0
0 0 0 0 0 0 0 0 0 0 0 0 0 0 0 0 0 0 0 0 0 0 0 0 0 0 0 0 0 0 0 0 0 0 0 0 0 0 0 0 0 0 0 0 0 0 0 0 0
0 0 0 0 0 0 0 0 0 0 0 0 0 0 0 0 0 0 0 0 0 0 0 0 0 0 0 0 0 0 0 0 0 0 0 0 0 0 0 0 0 0 0 0 0 0 0 0 0
0 0 0 0 0 0 0 0 0 0 0 0 0 0 0 0 0 0 0 0 0 0 0 0 0 0 0 0 0 0 0 0 0 0 0 0 0 0 0 0 0 0 0 0 0 0 0 0 0
0 0 0 0 0 0 0 0 0 0 0 0 0 0 0 0 0 0 0 0 0 0 0 0 0 0 0 0 0 0 0 0 0 0 0 0 0 0 0 0 0 0 0 0 0 0 0 0 0
Wind_Speed
9 4 2 4 7 7 5 5 3 6 5 3 2 6 8 5 4 3 2 2 3 4 4 5 7 7 6 5 4 3 2 2 1 2 2 3 3 3 4 5 5 6 6 5 5 4 3 3 3
3 2 5 6 8 6 5 6 7 5 4 1 3 5 7 6 4 4 6 4 4 4 3 1 5 6 6 6 5 4 4 3 3 3 4 4 5 4 5 5 5 6 8 8 7 6 5 4 4
3 4 6 6 6 4 4 7 6 6 4 3 4 6 6 6 9 7 7 3 6 5 3 1 4 5 5 5 5 5 5 5 4 5 5 6 6 6 6 6 5 6 6 8 8 6 5 5 5
4 6 7 9 8 3 3 5 6 7 7 9 5 7 6 7 10 9 7 6 7 6 4 3 2 3 4 5 5 5 6 6 6 6 6 7 8 7 6 5 5 6 6 6 6 6 6 5 5
5 6 9 8 6 5 4 6 6 7 7 9 6 6 5 10 14 12 12 11 10 9 8 7 6 5 4 5 5 6 6 7 7 7 7 8 9 9 8 5 4 5 6 6 6 6 5 5 5
6 7 8 5 4 5 5 6 5 7 7 9 10 5 5 11 22 17 15 15 15 14 13 13 16 14 9 6 6 6 6 7 8 8 9 9 10 10 9 7 6 5 6 6 6 6 5 5 6
6 7 5 4 3 6 8 5 7 6 10 11 10 6 6 17 20 13 14 17 18 19 18 16 15 15 16 13 10 8 7 8 8 9 10 10 9 10 9 8 7 7 7 7 7 6 6 5 6
5 7 5 3 4 5 7 5 6 11 9 8 10 10 9 15 15 11 18 20 20 20 20 18 17 16 14 11 17 17 15 13 12 10 10 9 9 9 9 7 8 8 9 9 9 8 8 6 6
5 8 4 2 2 3 6 7 8 8 9 11 11 9 7 11 11 20 22 22 22 22 19 18 18 18 16 14 18 19 19 20 18 14 14 10 5 5 5 7 9 11 11 11 12 11 9 7 5
7 5 2 1 1 4 7 9 8 10 14 11 11 14 11 11 19 24 22 21 21 20 18 17 17 18 16 14 12 11 11 12 12 12 13 8 6 5 5 7 9 11 11 11 13 12 9 6 2
5 4 1 3 4 5 7 10 12 8 14 9 9 11 11 18 21 20 17 13 12 10 14 16 16 15 15 11 10 9 8 9 10 13 14 11 8 6 5 4 5 5 6 5 6 5 3 3 2
5 5 4 5 6 7 7 7 12 16 8 5 5 7 12 19 18 16 14 13 12 14 16 14 14 14 13 11 9 9 9 8 9 11 13 10 8 8 7 5 5 4 3 4 3 3 4 4 4
5 5 9 15 22 18 19 14 13 11 7 5 7 13 16 16 13 11 11 12 15 17 17 15 13 15 13 10 9 10 9 9 9 9 10 11 8 8 8 6 6 5 4 4 4 4 4 4 4
4 7 7 7 10 7 17 11 9 7 6 7 12 14 13 13 13 14 16 17 17 16 16 15 14 15 13 11 9 7 7 7 7 8 10 11 8 8 9 8 7 6 5 4 4 5 4 4 4
4 8 7 5 5 6 12 14 8 5 6 10 12 11 13 13 14 14 13 13 13 14 15 16 15 16 15 13 11 9 7 7 7 8 8 10 10 9 9 8 8 7 7 6 5 5 3 4 4
5 6 5 4 4 4 11 9 5 6 8 11 10 10 11 12 12 11 13 12 12 13 15 15 15 15 14 12 10 8 8 9 8 8 8 10 11 11 9 8 8 9 8 6 5 5 4 4 4
8 4 3 4 8 7 10 9 4 7 9 10 10 9 10 12 13 11 12 11 12 12 13 14 15 15 14 12 9 9 8 8 8 8 9 11 12 12 10 8 8 10 8 6 6 5 4 5 5
2 2 3 4 6 9 11 9 6 7 9 9 9 9 11 13 11 10 10 11 11 11 12 12 13 14 12 9 8 7 7 7 7 7 9 13 12 13 11 8 10 10 8 7 6 7 6 5 5
1 3 3 4 4 8 11 10 7 7 9 10 10 10 11 10 10 10 11 12 13 15 15 15 15 14 12 11 11 10 9 9 8 7 11 12 13 13 11 9 10 10 9 10 10 8 8 5 4
4 4 3 3 5 8 9 9 7 7 6 6 7 9 10 11 13 13 13 13 14 15 15 15 15 15 13 11 10 8 8 8 9 9 11 12 14 13 11 11 10 11 10 11 10 8 6 5 4
4 3 2 3 5 6 8 5 5 4 4 6 7 6 8 10 10 10 10 11 12 14 15 15 15 15 14 13 10 10 8 8 9 11 11 13 15 14 12 12 11 11 10 9 11 10 9 7 5
2 1 1 4 5 5 6 4 4 3 6 8 8 9 9 9 8 8 10 12 13 13 14 15 16 15 14 13 12 14 12 11 12 11 11 14 14 13 12 12 12 11 10 10 11 10 8 8 7
4 2 1 2 5 3 2 4 2 2 5 6 7 8 9 8 8 8 9 10 12 13 14 14 15 15 15 15 15 14 12 11 11 12 13 12 11 11 12 13 12 12 11 12 11 11 9 6 7
3 3 3 4 4 2 0 4 1 1 1 3 6 8 9 9 8 7 8 9 11 12 13 14 16 16 16 16 16 16 16 16 16 17 15 13 11 11 13 14 13 13 12 12 12 10 11 8 7
9 7 6 7 4 2 3 4 2 3 2 1 5 9 10 9 7 8 10 11 13 14 14 15 16 16 16 16 16 16 16 16 16 16 15 15 12 12 14 15 14 13 13 13 11 10 10 8 7
4 5 4 2 5 5 2 2 4 4 2 2 5 7 9 8 7 8 9 9 11 13 14 15 16 16 16 16 16 15 15 12 12 15 14 14 12 12 15 16 15 15 15 14 12 10 9 7 7
2 3 2 4 2 5 2 1 2 1 4 6 7 8 8 7 7 7 8 8 10 11 13 15 16 16 16 16 16 14 14 14 14 15 14 12 12 13 15 16 16 16 16 15 13 9 10 8 7
4 5 4 3 3 7 5 4 3 2 7 8 8 9 9 7 7 7 7 8 9 10 11 12 14 15 15 15 14 14 14 14 14 13 14 15 15 15 15 15 16 17 16 16 14 11 9 9 7
3 4 5 3 3 2 7 4 5 3 5 8 9 9 8 7 7 7 7 7 8 9 10 11 13 15 15 15 14 14 13 13 13 13 14 14 14 14 15 15 16 16 16 16 15 14 13 11 9
3 3 3 1 3 3 4 5 3 3 4 7 9 9 7 6 6 6 7 7 9 10 11 12 12 13 14 14 14 14 13 14 13 14 14 14 15 14 14 14 14 15 16 16 15 15 14 13 11
Wind_Direction
340 358 58 54 53 52 42 353 330 335 352 5 62 110 102 83 84 98 320 58 100 119 155 184 173 180 183 188 193 195 206 223 265 313 321 317 303 288 290 285 282 275 265 259 254 249 245 239 221
333 2 50 56 72 62 10 341 350 342 325 322 68 71 60 35 17 17 356 18 75 107 120 132 182 189 195 200 206 211 219 232 248 271 291 296 297 292 293 288 291 285 270 260 257 254 248 242 232
9 48 71 64 64 73 358 331 322 319 345 35 70 57 58 16 354 348 331 52 76 85 83 98 199 206 215 220 224 228 231 238 247 257 273 282 283 290 295 298 305 311 291 266 255 252 248 241 230
52 42 52 66 64 23 329 312 325 346 14 18 50 55 59 33 344 329 341 53 64 53 37 11 254 243 245 245 245 245 245 247 251 258 268 279 281 286 294 299 311 318 314 289 264 254 253 248 235
55 68 59 55 44 352 339 334 347 26 24 3 31 75 50 5 353 4 17 36 41 31 20 8 344 319 291 270 262 257 256 259 263 265 268 279 285 286 287 277 284 300 305 303 288 275 271 264 255
52 62 72 63 24 342 355 343 16 34 18 14 13 65 69 2 7 5 25 38 37 30 22 14 3 356 341 315 290 275 268 267 270 273 272 274 280 288 289 273 260 272 285 290 292 288 288 287 279
83 75 80 86 41 18 356 3 32 28 33 8 347 39 6 2 356 359 31 38 37 32 26 18 10 4 357 348 336 316 300 290 284 282 283 284 282 286 289 290 273 263 270 277 278 278 278 283 289
101 89 64 53 56 22 350 37 46 37 39 12 23 34 0 337 339 11 38 36 33 29 25 17 13 11 6 4 4 1 355 347 333 317 306 297 286 284 286 289 284 274 269 268 268 267 267 271 280
75 72 69 58 75 33 13 47 39 46 52 44 45 34 350 331 7 37 35 31 28 26 23 18 16 14 10 14 15 13 11 7 3 352 340 325 305 290 284 277 275 274 272 268 264 261 260 263 272
67 89 84 45 96 91 53 46 29 56 42 30 26 21 12 26 40 43 37 31 25 20 20 20 18 15 14 14 12 9 10 6 7 3 357 347 335 319 305 289 284 281 280 278 269 262 261 262 263
69 109 76 41 64 84 84 59 27 74 47 19 14 10 21 41 44 43 39 32 23 16 22 21 19 17 18 13 12 10 5 4 3 4 2 357 353 346 337 322 311 305 298 289 281 274 256 251 247
69 46 39 23 45 62 66 83 58 53 68 31 31 33 42 45 41 37 33 27 20 23 19 16 18 17 16 14 12 13 8 5 3 359 2 2 357 353 344 334 321 311 300 288 276 261 251 249 247
59 61 65 79 80 85 84 80 84 54 47 42 52 49 44 44 37 31 32 29 23 20 13 8 11 13 9 11 9 13 7 4 359 359 1 1 357 350 342 334 328 317 308 293 281 267 258 251 250
67 80 94 83 87 76 83 72 75 45 24 41 47 44 37 35 28 27 25 22 18 14 9 2 8 8 3 5 2 2 360 356 357 359 357 358 355 348 342 335 329 323 315 299 280 268 261 256 247
104 95 78 69 96 137 93 56 55 49 41 47 37 32 33 29 26 24 18 15 11 8 5 3 4 3 360 358 356 355 351 351 354 353 351 355 353 347 341 332 327 323 318 306 289 273 256 253 247
60 63 62 27 50 75 85 86 48 37 52 48 33 28 30 27 24 21 19 17 13 8 4 2 0 358 355 352 348 347 348 349 349 347 347 352 350 347 341 332 325 321 317 308 294 275 261 247 238
34 56 57 32 28 49 81 107 55 35 56 50 32 26 27 24 20 16 18 15 10 6 0 358 356 354 350 346 342 338 339 343 342 343 346 346 346 346 340 328 323 323 317 308 298 287 256 253 245
9 39 38 38 29 60 87 100 70 45 59 49 33 25 23 20 8 3 9 8 5 3 359 355 354 352 346 343 339 335 337 338 336 338 342 342 341 341 337 330 329 326 318 310 302 290 272 250 247
124 94 72 54 54 79 95 97 69 48 49 41 31 22 14 7 356 3 8 5 4 3 360 356 354 352 352 350 346 340 340 339 336 337 339 338 338 336 333 335 332 329 320 309 301 291 280 261 236
88 95 88 92 74 97 101 87 63 46 51 45 31 17 3 359 359 1 2 2 0 357 355 353 352 349 351 348 340 334 332 332 334 335 334 336 336 333 333 335 333 330 324 317 310 297 281 268 220
50 101 140 141 76 85 114 97 90 49 51 41 25 7 0 1 349 348 354 355 355 355 353 349 346 346 348 347 345 341 337 338 341 338 335 335 332 330 328 331 332 329 327 323 317 305 285 275 259
341 349 251 177 147 177 155 163 171 113 41 21 4 356 350 347 343 347 354 354 355 351 348 346 345 345 348 349 349 346 348 343 338 333 328 326 326 325 329 332 332 329 326 325 322 318 298 278 269
280 318 254 167 150 117 130 137 208 74 33 1 345 339 336 336 341 346 351 350 351 350 348 345 344 347 350 351 349 347 347 342 335 334 330 328 325 326 332 332 332 330 326 324 321 321 312 291 273
322 32 83 66 91 142 229 169 233 34 58 325 330 331 331 332 338 341 347 352 352 351 349 348 346 348 351 351 350 348 347 343 339 339 335 334 331 332 334 335 333 328 325 323 321 321 315 309 291
27 44 19 2 359 278 77 105 185 177 179 310 326 323 323 328 337 344 351 355 353 351 351 348 347 348 350 350 348 344 346 343 340 337 333 332 331 332 334 336 331 328 324 320 320 320 318 313 307
24 75 101 285 279 295 37 154 210 191 217 295 308 310 317 326 338 343 349 355 351 351 351 351 348 346 348 349 345 343 347 344 337 333 330 329 328 327 331 332 330 328 326 323 320 316 315 318 314
64 80 137 158 291 283 269 179 237 232 311 310 309 315 321 325 334 337 346 356 352 352 353 348 346 346 347 344 341 341 345 341 337 332 330 329 328 328 332 334 335 333 330 328 324 314 312 313 307
82 129 79 72 334 303 291 221 216 264 305 308 313 317 319 325 332 337 350 356 354 354 350 347 345 345 342 342 341 342 339 337 335 333 333 331 330 332 333 338 338 337 335 336 332 324 315 311 309
27 60 84 99 159 239 292 279 169 211 284 301 304 306 315 327 333 341 350 354 351 352 350 346 345 343 341 340 338 336 335 335 335 335 334 331 331 335 336 338 338 339 338 338 336 335 332 323 313
95 97 118 130 258 204 238 267 165 197 283 294 297 304 315 324 329 340 348 352 351 351 349 345 343 341 339 337 336 334 334 335 336 335 334 334 334 334 336 337 339 340 339 339 342 343 344 340 332